Regional Weather Roundup
Issued by NWS

Home | Current Version | Previous Version | Graphics & Text | Print | Product List | Glossary On
Versions: 1 2 3 4 5 6 7 8 9 10 11 12 13 14 15 16 17 18 19 20 21 22 23 24 25 26 27 28 29 30 31 32 33 34 35 36 37 38 39 40 41 42 43 44 45 46 47 48 49 50
000
ASUS43 KMPX 060201
RWRMN
WEATHER ROUNDUP FOR MINNESOTA
NATIONAL WEATHER SERVICE TWIN CITIES/CHANHASSEN MN
900 PM CDT TUE MAY 05 2015


NOTE: "FAIR" INDICATES FEW OR NO CLOUDS BELOW 12,000 FEET WITH NO
SIGNIFICANT WEATHER AND/OR OBSTRUCTIONS TO VISIBILITY. N/A MEANS
CURRENT SKY AND/OR WEATHER CONDITIONS ARE NOT AVAILABLE.

MNZ060>063-068>070-060300-
   Twin Cities Metro

CITY           SKY/WX    TMP DP  RH WIND       PRES   REMARKS
TWIN CITIES    LGT RAIN  58  54  86 SE10      30.13S
ST PAUL        CLOUDY    58  53  84 SE9       30.13S
CRYSTAL        CLOUDY    61  52  72 SE14      30.11S
BLAINE         CLOUDY    64  54  68 SE14      30.12S
LAKEVILLE      CLOUDY    54  52  94 SE12G17   30.13S
EDEN PRAIRIE   CLOUDY    57  54  89 SE12      30.11S
SOUTH ST PAUL  LGT RAIN  57  53  84 SE7       30.13F
LAKE ELMO      LGT RAIN  59  52  77 SE7       30.15R
$$
MNZ001>005-007-008-013>017-022>024-027-028-060300-
   Northwest Minnesota

CITY           SKY/WX    TMP DP  RH WIND       PRES   REMARKS
BEMIDJI        CLEAR     63  38  39 SE8       30.05R
HALLOCK        PTCLDY    68  14  12 SE9       29.96S
ROSEAU         MOCLDY    70  21  16 SE8       30.01S
WARROAD        MOCLDY    64  34  32 SE8       30.03S
THIEF RVR FALL PTCLDY    66  28  24 SE8       30.00S
CROOKSTON      PTCLDY    70  41  35 S14       29.98R
FOSSTON        PTCLDY    66  36  32 SE7       30.02R
DETROIT LAKES  PTCLDY    64  46  52 SE12      30.04R
MOORHEAD       CLOUDY    70  54  56 SE17G24   29.99R
PARK RAPIDS    CLOUDY    68  43  40 S13       30.05R
MAHNOMEN       FAIR      68  45  42 S13G18    30.01R
$$
MNZ006-009>011-018-025>026-060300-
   North Central Minnesota

CITY           SKY/WX    TMP DP  RH WIND       PRES   REMARKS
BAUDETTE       PTCLDY    63  38  39 S3        30.05R
FLAG ISLAND    PTCLDY    64  30  27 E5        30.03S
INTL FALLS     CLEAR     56  32  40 SE3       30.07S
WASKISH        PTCLDY    63  36  36 CALM      30.06R
BIG FORK       CLEAR     64  28  25 SE3       30.09R
LONGVILLE      CLOUDY    66  36  32 S8        30.08R
GRAND RAPIDS   PTCLDY    64  32  29 SE7       30.10R
CRANE LAKE     CLEAR     54  36  50 CALM      30.13R
ORR            CLEAR     64  27  24 SE3       30.08R
COOK           PTCLDY    64  28  25 SE5       30.12R
WALKER         FAIR      66  38  36 SE7       30.06R
$$
MNZ012-019>021-037-060300-
   Northeast Minnesota

CITY           SKY/WX    TMP DP  RH WIND       PRES   REMARKS
DULUTH         PTCLDY    56  27  32 E14       30.15R
ELY            PTCLDY    59  23  25 SE15      30.15R
HIBBING        PTCLDY    61  28  28 SE10      30.12R
EVELETH        PTCLDY    59  27  29 SE12      30.15R
DULUTH HARBOR  CLEAR     45  37  76 E9        30.17S
TWO HARBORS    PTCLDY    57  30  35 NE8       30.16R
SILVER BAY     PTCLDY    54  25  32 NE3       30.17S
GRAND MARAIS     N/A     46  31  55 NE7       30.19S
G MARAIS ARPRT PTCLDY    52  21  30 NE7       30.21S
$$
MNZ029>031-032-039>041-046>048-054>057-064-060300-
   West Central Minnesota

CITY           SKY/WX    TMP DP  RH WIND       PRES   REMARKS
FERGUS FALLS   CLOUDY    66  54  63 SE17      30.02S
WHEATON        CLOUDY    61  52  72 SE18G25   30.02R
MORRIS         CLOUDY    63  54  72 SE21      30.03R
ALEXANDRIA     CLOUDY    62  52  69 SE14G24   30.07S
ELBOW LAKE     CLOUDY    64  53  68 SE18      30.03S
WADENA         CLOUDY    64  48  55 S15       30.06R
GLENWOOD       CLOUDY    63  54  72 SE9G16    30.07S
APPLETON       CLOUDY    63  54  72 SE15      30.03R
BENSON         CLOUDY    61  52  72 S15G22    30.05R
ORTONVILLE     CLOUDY    61  54  77 SE15G22   30.02R
MADISON        CLOUDY    61  54  77 SE18      30.03R
WILLMAR        CLOUDY    61  55  82 SE16      30.08S
$$
MNZ033>034-036-042>043-049>051-058-059-060300-
   Central Minnesota

CITY           SKY/WX    TMP DP  RH WIND       PRES   REMARKS
ST CLOUD       CLOUDY    63  49  60 SE8G20    30.09R
SAUK CENTRE    CLOUDY    62  51  66 SE15      30.08S
PAYNESVILLE    CLOUDY    58  52  78 E14       30.09R
AITKIN         CLOUDY    66  37  34 S10       30.09R
PINE RIVER     MOCLDY    66  45  45 SE8       30.11R
BRAINERD       CLOUDY    65  38  36 S10       30.10R
STAPLES        CLOUDY    64  43  45 SE8       30.07R
LONG PRAIRIE   CLOUDY    61  50  67 E10G16    30.08S
LITTLE FALLS   CLOUDY    64  45  48 SE12      30.09R
LITCHFIELD     CLOUDY    61  55  82 SE15G22   30.10S
BUFFALO        CLOUDY    60  53  76 SE8       30.12R
MAPLE LAKE     DRIZZLE   62  55  80 SE6       30.11R
$$
MNZ037-044-045-052-053-060300-
   East Central Minnesota

CITY           SKY/WX    TMP DP  RH WIND       PRES   REMARKS
PRINCETON      CLOUDY    64  43  45 E8        30.12R
MORA           CLOUDY    63  34  34 SE7       30.14S
CAMBRIDGE      MOCLDY    64  46  52 SE6       30.11S
RUSH CITY      CLOUDY    63  36  36 SE7       30.14R
MOOSE LAKE     PTCLDY    55  32  41 NE5       30.13R
HINCKLEY       CLOUDY    64  36  34 SE9       30.13S
CLOQUET        MOCLDY    54  27  35 E5        30.15R
MCGREGOR       MOCLDY    63  36  36 SE6       30.12R
$$
MNZ071>073-080-081-089-090-097-098-060300-
   Southwest Minnesota

CITY           SKY/WX    TMP DP  RH WIND       PRES   REMARKS
MONTEVIDEO     CLOUDY    61  54  77 S20       30.05S
GRANITE FALLS  CLOUDY    58  53  83 SE12G17   30.07R
CANBY          CLOUDY    60  54  81 SE13G18   30.03S
MARSHALL       CLOUDY    59  52  77 SE14      30.04S
REDWOOD FALLS  CLOUDY    58  53  84 SE16      30.06S
OLIVIA         CLOUDY    55  50  82 SE13G18   30.06S
PIPESTONE      CLOUDY    61  55  82 SE12      30.02R
WINDOM         CLOUDY    57  55  94 E12G17    30.06S
WORTHINGTON    CLOUDY    57  54  88 E14       30.04F
JACKSON        CLOUDY    57  54  88 E14       30.07S FOG
TRACY          CLOUDY    59  56  88 SE10      30.05R
SLAYTON        CLOUDY    59  57  93 SE16      30.05R
$$
MNZ065>067-074>077-082>085-091>093-060300-
   South Central Minnesota

CITY           SKY/WX    TMP DP  RH WIND       PRES   REMARKS
MANKATO        CLOUDY    55  52  88 SE14      30.10S
NEW ULM        CLOUDY    55  52  88 SE8       30.08S
ST JAMES       CLOUDY    57  54  88 E13       30.09S
FAIRMONT       CLOUDY    55  50  82 SE14      30.08S
GLENCOE        CLOUDY    57  55  91 E16       30.10S
FARIBAULT      CLOUDY    54  52  94 E10       30.12F
OWATONNA       CLOUDY    54  52  94 E14G23    30.11F
WASECA         CLOUDY    52  50  93 E14       30.11F
ALBERT LEA     CLOUDY    54  54 100 E12       30.11S
$$
MNZ078>079-086>088-094>096-060300-
   Southeast Minnesota

CITY           SKY/WX    TMP DP  RH WIND       PRES   REMARKS
ROCHESTER      CLOUDY    53  51  93 SE15      30.15F
RED WING       LGT RAIN  57  54  88 SE9       30.15S
STANTON        DRIZZLE   56  52  87 E8G16     30.12F
DODGE CENTER   CLOUDY    54  52  94 SE14      30.13F
WINONA         DRIZZLE   54  52  94 SE9       30.18S
AUSTIN         CLOUDY    54  52  94 SE13      30.12S
PRESTON        CLOUDY    52  51  95 E10       30.16S
$$
ABBREVIATIONS USED IN REMARKS
   TC - TEMPERATURES IN CELSIUS
  WCI - WIND CHILL INDEX
   HX - HEAT INDEX
  VSB - VISIBILITY
$$



USA.gov is the U.S. government's official web portal to all federal, state and local government web resources and services.